Location: Newark
(43.4306°N, 0.3089°E)
Time: 01:35:22
(UTC+00:00)

A-11 Canister half - Pass Details

Date: 30 August 2019
Orbit: 1514 x 1686 km, 47.2° (Epoch: 23 October)

Event Time Altitude Azimuth Distance (km) Brightness Sun altitude
Rises 21:11:07 0° 293° (WNW) 4,736 12.7 -25.3°
Reaches altitude 10° 21:14:09 10° 292° (WNW) 3,772 11.9 -25.7°
Maximum altitude 21:23:43 73° 210° (SSW) 1,674 9.0 -26.9°
Enters shadow 21:26:54 48° 141° (SE) 2,036 9.1 -27.3°
